Location: Boissi�res
(45.2500°N, 2.3667°E)
Time: 15:31:20
(UTC+00:00)

CZ-2C R/B - Pass Details

Date: 03 March 2021
Orbit: 783 x 871 km, 98.2° (Epoch: 22 April)

Event Time Altitude Azimuth Distance (km) Brightness Sun altitude
Rises 19:41:29 0° 8° (N) 3,434 5.9 -21.9°
Reaches altitude 10° 19:43:58 10° 2° (N) 2,482 5.3 -22.4°
Maximum altitude 19:49:10 45° 291° (WNW) 1,121 3.7 -23.3°
Drops below altitude 10° 19:54:15 10° 220° (SW) 2,411 5.3 -24.1°
Sets 19:56:38 0° 214° (SW) 3,326 6.0 -24.5°
